Wetbulb
42.47 42.89 42.90 43.01 42.83 43.12 43.34 43.42 43.27 43.21 43.05 43.02 42.86 42.70 42.77 42.69 42.88 39.64 36.11 39.73 36.26 31.96 32.55 35.12 35.85 32.89 36.15 36.59 32.32 34.05 33.99 33.26 30.44 28.58 28.21 25.83 23.13 24.79 24.19 24.87 25.13 25.27 24.82 24.27 25.37 19.22 20.31 27.90 28.47 26.91 27.43 25.28 27.71 26.84
42.23 42.56 42.54 42.43 42.77 43.05 43.04 43.04 42.86 42.61 42.58 42.61 42.42 42.48 42.61 42.64 42.58 41.58 34.22 39.72 40.55 33.84 33.07 35.68 35.57 35.86 34.09 35.12 35.81 33.41 34.64 33.41 33.71 31.08 29.10 27.42 24.60 22.92 23.88 22.39 26.03 25.27 29.09 27.44 27.70 26.09 25.58 25.24 26.23 27.33 28.01 26.61 24.73 24.83
41.95 42.21 42.14 42.59 42.52 42.64 42.75 42.73 42.58 42.37 42.21 42.35 42.15 42.32 42.36 42.37 42.45 40.66 37.38 38.16 37.45 31.12 31.01 32.43 32.08 35.36 37.47 35.97 37.95 34.86 34.20 34.51 33.83 34.83 32.02 29.88 26.88 26.74 22.27 21.97 24.46 25.97 28.82 25.37 26.50 22.64 23.63 25.37 26.29 27.14 26.95 25.94 25.77 26.44
41.63 41.82 42.26 42.12 42.23 42.27 42.29 42.33 42.26 42.20 42.31 41.96 42.20 42.17 42.03 41.99 41.98 41.19 36.60 38.00 35.46 31.53 26.84 26.98 36.37 33.04 36.84 37.24 38.10 38.98 36.21 37.07 36.54 36.70 33.22 31.20 28.76 30.01 26.02 25.75 25.13 26.68 29.41 23.60 20.13 23.46 26.57 26.17 26.16 26.68 26.67 27.30 26.79 26.96
41.49 41.70 41.84 41.93 41.99 41.80 41.89 42.10 42.03 42.20 41.76 41.45 41.97 41.84 41.85 41.58 41.72 39.32 37.30 37.99 37.95 31.59 26.11 24.79 32.61 34.20 35.90 37.42 37.79 38.62 37.27 35.42 32.91 31.06 29.16 25.80 28.16 27.35 26.20 27.92 25.59 28.08 26.50 26.30 25.34 26.31 28.94 27.12 26.82 28.39 27.22 26.40 27.00 26.26
41.42 41.41 41.52 41.64 41.77 41.64 41.88 41.90 41.80 41.61 41.21 41.25 41.59 41.71 41.56 41.48 41.41 35.86 31.07 33.62 35.13 33.66 28.97 23.19 31.39 30.13 33.62 35.59 34.50 32.99 33.80 32.28 31.94 28.53 26.34 27.58 29.59 28.51 23.93 21.16 24.83 26.25 31.41 29.40 27.14 30.18 29.39 29.52 27.49 27.48 26.40 26.36 26.42 26.43
41.10 41.11 41.30 41.50 41.62 41.37 41.24 41.09 40.95 41.16 41.27 41.30 41.46 41.32 41.33 41.20 36.72 32.88 30.86 34.23 35.27 33.83 28.86 23.04 24.86 29.86 31.42 32.82 32.35 32.36 32.33 31.00 30.57 28.21 26.14 26.50 25.70 28.35 24.27 19.25 25.10 26.74 28.78 30.24 28.18 28.10 24.96 25.81 24.17 26.34 26.77 27.35 28.17 25.22
40.88 40.94 41.20 41.41 41.14 41.25 41.13 40.90 41.14 41.04 41.28 41.51 41.30 41.04 40.54 39.76 37.62 33.95 36.02 38.11 34.73 32.52 30.86 21.21 21.43 25.75 30.37 27.53 26.26 31.59 28.52 29.18 27.55 27.24 27.47 25.47 26.56 26.10 19.85 23.56 24.67 23.94 24.56 26.00 25.78 27.44 27.09 25.57 25.77 24.88 25.70 25.51 23.97 22.67
40.62 40.83 41.00 41.14 41.15 40.68 40.92 40.87 40.99 41.21 41.20 40.83 40.19 38.47 37.04 34.17 31.62 32.80 38.33 36.72 35.16 31.52 23.18 19.22 15.77 15.02 29.33 26.80 28.34 27.66 29.22 22.09 27.53 23.48 23.61 25.88 22.45 17.86 22.91 22.88 22.70 24.17 24.29 22.69 25.03 25.70 25.57 24.13 23.47 23.48 23.40 22.87 21.87 21.55
40.73 40.62 40.73 41.23 40.73 40.58 40.58 40.79 40.99 40.98 40.48 38.55 30.85 21.61 18.55 29.45 38.58 37.68 32.57 28.45 27.23 28.00 27.11 19.96 24.25 18.00 24.58 24.40 22.89 23.26 23.94 21.16 17.86 19.70 24.20 21.45 19.83 22.55 22.89 24.03 24.89 24.42 25.01 26.07 23.25 21.31 22.35 21.48 21.60 21.58 21.19 20.88 20.84 21.06
40.45 40.73 41.02 40.93 40.30 40.41 40.57 40.68 40.62 39.70 35.92 28.69 21.38 24.90 28.83 37.38 33.18 27.65 21.60 20.42 22.68 20.23 23.92 23.81 23.59 20.95 24.39 20.99 19.52 20.43 16.17 17.10 14.41 16.94 16.69 16.37 16.37 20.58 22.63 23.06 24.32 24.45 24.46 23.82 23.68 23.09 22.79 22.08 20.90 20.65 20.84 20.56 20.50 19.68
40.85 40.85 40.75 40.03 40.29 40.13 40.33 40.29 39.94 30.10 22.57 29.21 31.39 33.91 30.97 27.04 24.14 19.64 16.91 20.31 19.78 17.65 22.15 22.18 21.62 23.21 21.89 23.54 17.15 14.46 10.15 11.54 11.28 15.10 13.74 12.03 17.67 20.83 21.49 21.13 22.25 23.05 22.91 21.83 22.37 21.51 21.61 22.35 21.40 21.29 20.68 20.36 20.18 19.97
40.74 40.58 40.00 40.14 40.06 40.40 40.26 40.29 39.65 37.80 31.72 24.95 20.45 22.57 20.76 18.90 13.07 12.58 10.57 13.63 15.88 20.27 22.14 22.74 19.64 21.85 21.81 19.95 12.29 12.53 10.21 7.64 13.58 8.54 10.07 12.10 17.13 18.95 19.19 20.84 19.73 20.76 21.70 21.82 21.85 22.20 22.21 21.31 22.78 21.88 20.82 21.02 20.26 20.13
40.06 39.87 40.35 40.23 40.37 40.22 40.10 39.81 38.28 32.54 23.35 15.40 15.00 13.56 12.41 10.38 13.12 16.79 16.33 17.53 21.31 22.68 21.29 21.26 18.87 18.24 18.48 13.58 12.13 8.00 8.92 7.25 2.13 1.67 5.61 9.08 14.82 16.61 17.98 19.51 19.56 18.09 19.59 20.03 20.78 21.41 21.45 21.80 21.03 21.46 21.29 20.08 19.28 18.56
39.47 39.70 39.53 38.97 39.43 39.19 38.80 38.66 35.73 26.19 17.49 12.92 14.94 12.15 15.62 21.04 21.41 20.68 22.11 22.85 23.38 22.93 21.24 19.32 17.88 17.00 12.36 9.13 9.77 7.33 1.18 -2.42 3.80 5.90 10.50 11.41 15.18 16.46 16.90 18.01 18.11 18.52 18.83 18.65 18.55 19.56 20.05 20.10 19.31 19.21 19.39 19.36 19.53 20.46
39.19 38.02 35.59 39.80 39.52 38.77 37.28 31.24 25.49 20.61 12.06 16.56 19.30 16.77 19.76 19.31 19.45 21.38 22.43 22.18 24.21 23.02 20.61 17.81 11.38 9.48 6.89 6.62 5.37 -2.66 -0.29 -1.30 8.63 9.55 14.79 13.97 14.20 15.30 17.06 19.17 19.54 19.84 19.77 19.80 19.64 19.99 19.58 18.87 18.02 17.62 18.03 18.32 19.08 19.91
38.03 32.70 39.10 39.38 38.67 36.19 34.60 20.58 15.15 8.89 10.68 15.80 17.10 21.56 20.60 20.36 20.28 21.95 23.16 22.71 24.58 22.13 15.97 14.11 8.86 5.17 9.70 5.20 4.01 7.02 5.03 10.23 13.83 15.87 17.66 17.25 17.25 17.31 18.74 20.87 21.05 20.41 19.45 19.05 18.81 18.60 18.39 18.72 17.17 16.63 16.64 18.20 18.44 19.05
33.84 32.98 39.03 38.47 34.88 29.88 24.60 13.20 8.06 8.20 8.89 13.81 13.83 18.51 20.61 23.07 21.82 22.22 23.53 24.78 21.94 20.99 17.51 10.81 12.80 4.73 -0.18 0.23 8.50 11.67 12.13 13.97 16.36 17.39 17.85 17.63 17.97 18.76 20.65 19.41 19.94 19.42 18.63 18.43 17.28 16.41 16.11 15.94 16.28 17.24 17.65 16.43 15.69 15.73
33.88 34.78 38.33 37.09 31.26 17.97 12.55 15.01 12.55 10.37 5.39 15.42 17.46 19.97 20.65 21.90 24.02 23.33 22.82 23.66 23.27 21.04 15.73 12.09 8.13 5.97 12.33 12.97 12.47 13.03 12.92 14.79 15.29 16.90 16.56 15.10 16.35 17.26 18.36 18.81 18.68 17.57 17.09 15.56 14.70 14.57 15.56 16.66 17.37 16.09 16.02 16.51 15.84 18.27
37.40 37.11 37.02 34.28 28.64 12.02 10.16 12.92 14.60 7.94 8.53 11.81 12.14 14.51 17.92 20.46 20.73 19.89 19.96 20.68 22.32 19.25 16.67 14.76 14.43 15.06 14.56 16.46 17.20 17.14 17.74 17.60 17.79 16.38 16.57 16.92 15.68 15.18 16.63 16.27 16.25 16.63 14.89 13.82 14.44 18.68 14.76 14.64 16.59 17.74 17.62 19.89 17.73 14.47
31.98 32.18 30.82 25.75 12.33 12.60 8.33 11.87 11.65 8.36 13.04 7.78 5.67 10.19 10.32 13.70 10.86 12.20 13.49 19.31 15.40 13.20 15.03 18.00 17.74 15.99 16.27 15.40 15.98 16.68 15.33 16.59 15.60 15.55 15.18 15.04 15.27 15.21 13.99 13.98 13.19 15.67 12.03 11.14 7.76 10.96 16.55 15.64 16.35 17.15 15.26 17.22 17.28 18.12
27.42 31.14 15.19 17.23 8.79 5.28 6.61 4.48 6.12 3.70 4.47 1.00 1.02 0.43 -2.39 3.71 6.91 11.38 14.25 12.49 11.84 13.98 15.85 17.12 18.62 17.13 14.93 13.05 13.36 13.61 14.32 15.19 14.98 15.53 16.75 15.54 12.38 12.51 13.11 14.43 13.05 5.58 8.03 9.30 11.37 13.99 16.10 16.69 18.43 18.67 15.99 16.27 17.72 15.11
27.32 22.76 9.44 7.79 9.10 6.42 4.62 1.94 3.59 0.33 2.81 1.78 -2.55 -0.45 -1.71 -0.25 4.80 9.58 8.99 13.17 14.15 16.40 16.36 16.63 18.54 17.01 15.02 14.63 14.40 13.42 12.87 11.79 10.91 11.54 11.93 11.19 11.64 13.60 13.45 13.38 13.85 5.87 10.46 14.36 17.42 17.78 15.83 18.99 16.60 17.66 16.46 15.87 16.44 16.61
20.96 6.75 3.64 -0.64 0.92 1.05 1.50 -0.39 0.62 -0.91 -3.52 -1.72 -4.42 1.80 4.16 1.84 3.93 3.83 7.25 11.48 14.77 15.72 13.76 13.57 14.91 14.58 13.60 12.15 10.69 11.05 11.43 11.42 9.09 8.77 9.07 8.33 8.55 8.55 11.27 12.60 14.06 14.61 15.44 17.26 17.94 16.93 16.66 15.72 17.87 14.70 15.32 15.30 15.19 15.36
10.80 8.41 4.97 2.19 -2.65 2.57 -0.46 -0.59 -2.61 1.38 -0.44 -3.63 -1.34 5.47 7.33 2.22 0.19 1.76 6.38 10.09 13.02 11.03 11.18 11.34 11.86 12.17 8.43 6.58 9.57 10.16 11.55 10.17 7.02 2.59 6.64 6.71 2.50 4.29 9.02 11.99 13.61 14.93 16.97 15.90 14.80 15.11 15.19 15.71 14.54 13.55 13.45 13.00 13.44 14.78
4.25 5.61 4.35 2.02 6.78 3.90 1.53 -1.16 -4.19 -1.52 -1.08 2.56 3.65 6.09 6.21 5.71 1.16 3.24 7.98 8.17 8.93 9.85 8.31 8.21 8.11 7.45 7.27 10.07 7.80 8.39 8.81 10.04 7.03 2.62 6.42 7.52 4.47 4.88 5.65 8.81 10.60 12.61 18.12 16.71 15.16 14.60 15.54 16.11 15.95 15.47 15.52 16.33 19.73 16.11
1.71 2.03 13.18 18.26 14.39 11.43 6.41 5.47 5.31 1.10 -4.82 4.40 4.87 3.79 2.47 -1.41 -0.64 7.08 10.75 9.53 7.88 8.86 8.25 7.37 8.01 6.16 6.26 5.99 7.83 8.04 7.92 7.18 4.47 5.77 9.00 9.41 10.18 9.62 10.17 9.69 10.31 14.04 16.72 18.47 17.67 16.60 15.79 16.10 16.20 16.43 16.38 17.17 16.76 16.02
8.36 7.83 3.04 5.62 6.05 6.77 0.36 -1.80 -4.04 -3.77 0.80 7.08 4.60 -4.27 -2.97 1.22 4.84 7.50 9.19 10.40 8.18 5.86 3.64 4.23 6.40 2.57 -0.32 -0.59 -1.99 -1.54 1.86 6.35 9.26 7.34 8.55 10.37 10.16 9.73 8.44 12.46 14.96 19.95 19.01 18.77 19.33 19.18 18.45 17.80 17.50 17.46 17.12 16.70 16.15 15.22
7.45 10.28 10.17 -0.09 -1.30 -1.41 0.74 0.31 3.72 8.00 9.67 7.16 -2.60 -1.69 0.83 5.78 6.79 6.70 9.75 9.50 6.08 0.20 1.26 0.41 1.31 -2.52 -4.03 -3.03 -1.15 4.63 3.77 8.73 6.80 4.62 4.02 5.57 8.13 10.09 14.57 13.58 13.97 16.88 17.65 16.94 20.13 20.98 20.51 21.53 21.29 19.66 18.59 17.75 16.91 14.73
10.06 11.18 4.41 5.41 2.94 3.75 6.07 6.30 1.93 4.06 7.44 3.76 4.54 5.73 5.91 7.00 8.36 9.87 8.75 4.45 3.03 2.05 -0.55 -6.13 -4.22 -5.40 0.38 1.95 2.91 5.72 4.78 3.60 7.78 4.31 2.06 3.64 7.08 10.59 11.81 13.24 16.81 16.47 16.27 15.96 16.04 16.43 20.32 19.57 18.03 14.77 15.11 14.12 13.19 11.03
13.73 10.71 5.99 2.46 1.19 5.64 5.92 7.37 7.06 8.37 0.53 -6.18 -7.91 -2.83 0.42 2.24 8.48 9.39 6.83 4.93 1.92 0.79 1.62 4.56 4.96 2.38 1.52 2.79 1.22 2.24 4.16 2.53 1.97 4.67 7.81 10.14 10.29 11.55 15.31 17.97 16.68 15.57 15.37 15.75 15.61 15.63 15.36 14.76 14.43 13.20 13.23 13.14 13.23 14.34
10.94 5.80 8.20 5.09 3.63 2.85 4.48 5.05 3.79 3.26 2.31 -2.40 -2.41 -5.17 -1.75 0.06 -0.68 4.23 6.40 2.64 4.67 6.00 9.41 6.26 4.07 3.77 3.84 0.79 0.78 1.23 10.13 6.21 4.25 5.16 4.79 12.09 15.99 17.70 19.42 16.72 15.47 15.18 15.22 14.97 15.41 15.59 15.12 13.77 13.08 13.35 14.24 13.47 12.28 9.96
4.95 4.77 4.59 4.14 1.73 2.36 3.39 3.84 1.92 0.75 1.71 -0.98 0.24 0.05 -1.41 0.36 -1.37 2.73 4.63 7.25 7.41 7.18 6.88 6.66 6.27 4.26 2.38 1.35 0.51 0.37 6.14 0.69 3.62 15.78 17.19 19.87 20.87 21.75 18.39 15.75 15.02 15.15 13.90 14.14 14.84 14.92 14.11 13.20 13.04 13.34 13.94 14.81 14.91 12.58
MSLP
1021.40 1020.83 1020.18 1019.46 1018.82 1018.24 1017.59 1017.01 1016.51 1016.04 1015.69 1015.30 1014.78 1014.49 1014.14 1013.61 1013.21 1012.99 1012.65 1012.26 1012.39 1010.77 1009.07 1008.63 1008.27 1008.07 1006.63 1006.05 1005.89 1006.19 1006.15 1005.92 1006.21 1006.36 1006.90 1007.70 1008.65 1009.37 1009.91 1010.43 1010.61 1010.93 1011.78 1012.70 1013.42 1013.81 1013.57 1012.79 1013.41 1013.75 1014.32 1015.02 1015.51 1016.73
1020.84 1020.10 1019.43 1018.81 1018.26 1017.53 1016.80 1016.21 1015.75 1015.32 1015.00 1014.63 1014.16 1013.81 1013.41 1012.89 1012.49 1012.11 1011.99 1011.36 1011.40 1010.95 1009.34 1008.80 1008.32 1008.24 1007.97 1007.22 1006.46 1006.33 1006.24 1006.05 1006.06 1006.24 1006.94 1007.50 1008.75 1009.47 1009.86 1010.90 1010.68 1011.10 1010.69 1011.41 1012.68 1013.36 1013.57 1013.89 1014.08 1014.23 1014.56 1015.23 1016.76 1017.33
1020.30 1019.49 1018.82 1018.20 1017.55 1016.89 1016.21 1015.60 1015.01 1014.59 1014.31 1013.96 1013.41 1013.07 1012.68 1012.30 1011.90 1011.81 1011.59 1011.24 1010.98 1010.28 1009.20 1008.55 1008.24 1008.31 1007.95 1007.66 1007.25 1006.74 1006.67 1006.59 1006.67 1006.78 1007.20 1007.91 1008.65 1009.32 1010.15 1010.42 1010.79 1011.11 1010.98 1011.83 1013.03 1014.59 1014.66 1014.82 1014.95 1015.01 1015.56 1016.23 1017.29 1018.31
1019.58 1018.89 1018.29 1017.63 1016.96 1016.28 1015.63 1015.00 1014.45 1014.02 1013.61 1013.14 1012.73 1012.37 1012.01 1011.63 1011.36 1011.18 1011.22 1010.98 1010.85 1010.41 1009.26 1008.55 1008.21 1008.42 1008.12 1007.57 1007.15 1006.86 1006.86 1006.82 1006.90 1007.24 1007.87 1008.61 1009.52 1009.85 1010.39 1010.65 1011.20 1011.73 1011.61 1012.84 1014.58 1015.36 1015.40 1015.81 1015.99 1015.91 1016.67 1017.38 1018.23 1019.14
1018.93 1018.35 1017.71 1017.12 1016.39 1015.71 1015.07 1014.44 1013.84 1013.45 1013.00 1012.57 1012.18 1011.74 1011.26 1010.74 1010.54 1010.32 1010.16 1009.67 1009.66 1009.97 1009.00 1008.90 1008.50 1008.45 1008.05 1007.49 1007.25 1006.95 1007.01 1007.32 1007.72 1008.33 1009.00 1010.05 1010.57 1011.22 1011.75 1011.78 1012.64 1012.81 1012.83 1013.00 1013.43 1014.11 1014.74 1016.30 1016.74 1016.85 1017.33 1018.40 1019.11 1019.72
1018.41 1017.77 1017.19 1016.54 1015.81 1015.12 1014.57 1013.86 1013.35 1012.95 1012.49 1011.99 1011.63 1011.08 1010.57 1010.16 1009.81 1009.98 1009.14 1009.38 1009.32 1009.42 1009.25 1009.16 1009.02 1008.84 1008.29 1007.84 1007.59 1007.62 1007.87 1008.23 1008.61 1009.37 1010.44 1011.17 1011.47 1011.48 1012.22 1013.23 1013.86 1013.62 1013.42 1013.20 1014.05 1014.84 1015.27 1016.68 1017.36 1017.72 1018.40 1019.20 1019.87 1020.37
1017.85 1017.28 1016.69 1016.01 1015.31 1014.66 1014.06 1013.53 1013.02 1012.47 1011.92 1011.40 1010.94 1010.36 1009.89 1009.61 1009.79 1010.22 1009.73 1009.49 1009.40 1009.39 1009.21 1009.29 1009.18 1008.99 1008.75 1008.44 1008.51 1008.67 1008.82 1009.24 1009.39 1010.35 1011.31 1011.81 1012.12 1011.98 1013.19 1014.13 1014.54 1014.54 1014.44 1014.47 1014.97 1015.64 1017.21 1017.62 1018.07 1018.52 1019.00 1019.80 1020.42 1021.04
1017.29 1016.79 1016.18 1015.54 1014.86 1014.26 1013.77 1013.18 1012.56 1011.97 1011.34 1010.79 1010.19 1009.77 1009.34 1009.25 1009.38 1009.57 1009.50 1009.18 1009.33 1009.18 1009.09 1009.22 1009.26 1009.32 1009.25 1009.05 1009.34 1009.59 1009.86 1010.21 1010.89 1011.48 1012.34 1012.73 1013.11 1013.51 1014.50 1015.10 1015.26 1015.22 1015.27 1015.70 1015.86 1016.03 1016.86 1017.82 1018.63 1019.43 1019.94 1020.48 1021.11 1021.70
1016.91 1016.36 1015.72 1015.07 1014.47 1013.88 1013.31 1012.77 1012.13 1011.50 1010.78 1010.24 1009.78 1009.44 1009.46 1009.63 1009.58 1009.50 1009.32 1009.25 1009.19 1009.43 1009.20 1009.20 1009.16 1009.82 1009.79 1009.79 1009.97 1010.50 1010.68 1011.61 1012.43 1012.90 1013.63 1013.87 1014.66 1015.40 1015.91 1015.71 1015.53 1015.52 1015.53 1016.29 1016.60 1016.92 1017.77 1018.53 1019.49 1020.15 1020.63 1021.19 1021.65 1022.26
1016.52 1015.86 1015.30 1014.72 1014.11 1013.61 1013.01 1012.41 1011.75 1011.15 1010.63 1010.19 1010.14 1010.27 1010.07 1009.89 1009.47 1009.16 1009.16 1009.20 1009.28 1009.37 1009.42 1009.74 1009.90 1010.37 1010.50 1010.32 1011.04 1011.52 1012.07 1012.88 1013.76 1015.09 1014.88 1015.37 1016.61 1016.97 1016.81 1016.45 1016.13 1016.21 1016.24 1016.35 1017.11 1018.28 1018.83 1019.63 1020.18 1020.70 1021.20 1021.68 1022.12 1022.56
1016.06 1015.57 1014.98 1014.35 1013.83 1013.29 1012.70 1012.14 1011.64 1011.20 1010.80 1011.08 1011.20 1010.84 1010.31 1009.78 1009.36 1009.45 1009.69 1009.86 1009.95 1010.14 1010.25 1010.33 1010.32 1010.38 1010.77 1010.74 1011.92 1012.85 1013.49 1014.24 1015.02 1016.19 1016.00 1017.23 1017.86 1017.84 1017.58 1017.30 1017.11 1017.14 1017.14 1017.47 1017.77 1018.64 1019.22 1019.81 1020.58 1021.16 1021.67 1022.06 1022.48 1022.81
1015.81 1015.30 1014.69 1014.24 1013.72 1013.18 1012.61 1012.16 1011.86 1011.83 1011.89 1011.72 1011.64 1011.09 1010.81 1010.37 1010.19 1010.40 1010.77 1010.75 1010.70 1010.98 1010.88 1010.82 1011.09 1011.00 1011.26 1011.41 1012.56 1013.91 1014.75 1015.40 1016.86 1017.00 1017.09 1018.76 1018.87 1018.53 1018.29 1018.28 1018.33 1018.22 1018.26 1018.83 1019.13 1019.85 1020.37 1020.80 1021.20 1021.62 1022.04 1022.40 1022.67 1022.89
1015.50 1015.08 1014.70 1014.23 1013.70 1013.12 1012.67 1012.38 1012.01 1011.61 1011.41 1011.77 1011.82 1011.96 1012.02 1011.90 1011.80 1012.17 1012.21 1011.96 1011.67 1011.66 1011.56 1011.55 1011.71 1011.56 1012.05 1012.50 1013.93 1014.68 1016.21 1017.99 1018.29 1018.11 1019.50 1019.77 1019.45 1019.25 1019.14 1019.13 1019.32 1019.39 1019.48 1019.85 1020.38 1020.73 1021.15 1021.55 1021.82 1022.03 1022.33 1022.58 1022.74 1022.93
1015.60 1015.36 1015.02 1014.56 1014.03 1013.53 1013.01 1012.59 1012.17 1011.85 1011.95 1013.18 1013.48 1013.51 1013.82 1013.86 1013.77 1013.49 1013.32 1012.92 1012.61 1012.25 1012.21 1012.20 1012.24 1012.44 1013.12 1013.89 1015.47 1016.81 1018.99 1019.13 1019.89 1020.37 1020.68 1020.46 1020.18 1019.98 1019.84 1019.98 1020.07 1020.63 1020.76 1020.96 1021.24 1021.45 1021.74 1022.11 1022.39 1022.52 1022.52 1022.68 1022.89 1022.95
1016.15 1015.87 1015.50 1014.96 1014.45 1013.87 1013.25 1012.77 1012.54 1012.65 1013.70 1014.85 1014.84 1015.45 1015.14 1014.87 1014.32 1013.81 1013.34 1012.98 1012.94 1012.77 1012.71 1012.58 1012.90 1013.28 1014.42 1015.63 1017.06 1018.45 1019.79 1021.05 1021.30 1021.43 1021.14 1020.95 1020.76 1020.58 1020.67 1020.84 1021.01 1021.29 1021.54 1021.77 1021.92 1022.09 1022.27 1022.51 1022.79 1022.89 1022.90 1022.86 1022.88 1022.90
1016.41 1016.22 1015.98 1015.17 1014.49 1013.96 1013.51 1013.29 1013.46 1014.04 1015.57 1016.29 1016.76 1016.44 1015.86 1015.12 1014.64 1014.02 1013.64 1013.26 1012.87 1012.95 1013.10 1013.36 1014.17 1015.22 1016.91 1017.73 1018.64 1020.46 1020.94 1022.03 1022.04 1021.52 1021.31 1021.27 1021.31 1021.33 1021.42 1021.57 1021.74 1021.90 1022.15 1022.45 1022.68 1022.79 1022.84 1022.95 1023.08 1023.19 1023.02 1022.88 1022.85 1022.87
1017.27 1017.44 1016.61 1015.63 1014.85 1014.46 1014.17 1014.47 1015.45 1016.89 1017.81 1018.28 1018.28 1017.56 1016.80 1016.10 1015.57 1015.04 1014.63 1014.11 1013.48 1013.42 1014.12 1014.66 1016.16 1018.15 1018.34 1019.34 1020.87 1021.61 1022.26 1022.25 1021.89 1021.67 1021.62 1021.71 1021.93 1022.15 1022.20 1022.28 1022.49 1022.71 1022.93 1023.09 1023.20 1023.27 1023.27 1023.22 1023.27 1023.34 1023.27 1023.02 1022.96 1022.94
1018.03 1017.74 1016.70 1015.97 1015.35 1015.19 1015.73 1016.75 1018.43 1019.33 1020.04 1019.87 1019.37 1018.71 1017.85 1017.11 1016.51 1015.83 1015.22 1014.70 1014.18 1014.36 1015.03 1016.34 1017.41 1019.15 1020.40 1021.35 1022.30 1022.54 1022.43 1022.34 1022.33 1022.41 1022.66 1022.74 1022.71 1022.80 1022.97 1023.20 1023.32 1023.32 1023.36 1023.46 1023.50 1023.49 1023.49 1023.51 1023.46 1023.36 1023.25 1023.03 1022.95 1022.79
1018.02 1017.54 1016.97 1016.43 1016.21 1016.89 1018.57 1019.29 1019.94 1021.54 1021.98 1021.31 1020.52 1019.73 1018.95 1018.35 1017.71 1017.21 1016.46 1015.60 1015.32 1015.48 1016.15 1017.59 1019.59 1021.24 1022.07 1022.59 1022.76 1022.80 1022.66 1022.64 1022.86 1023.22 1023.45 1023.48 1023.46 1023.53 1023.61 1023.65 1023.72 1023.77 1023.82 1023.94 1023.96 1023.93 1023.82 1023.59 1023.47 1023.32 1023.22 1023.05 1022.96 1022.76
1017.92 1017.56 1017.27 1017.00 1016.70 1018.48 1020.52 1021.24 1020.84 1022.44 1022.94 1022.63 1021.91 1021.40 1020.70 1020.11 1019.48 1018.67 1017.78 1016.98 1016.48 1016.70 1018.37 1020.39 1022.11 1022.97 1023.27 1023.49 1023.35 1023.19 1023.06 1022.89 1023.04 1023.51 1023.97 1024.14 1024.18 1024.18 1024.31 1024.37 1024.40 1024.42 1024.46 1024.44 1024.35 1023.98 1023.89 1023.70 1023.53 1023.36 1023.16 1022.82 1022.80 1022.72
1018.40 1018.18 1017.93 1017.80 1019.04 1020.27 1022.65 1023.42 1023.44 1023.86 1023.81 1023.94 1023.62 1022.98 1022.54 1021.75 1021.21 1020.77 1020.30 1019.65 1019.45 1021.37 1022.26 1023.15 1023.60 1024.05 1024.19 1024.19 1024.10 1023.90 1023.79 1023.57 1023.83 1023.95 1024.43 1024.75 1024.92 1024.93 1025.05 1025.12 1025.05 1024.90 1024.90 1024.74 1024.61 1024.25 1023.93 1023.77 1023.52 1023.25 1023.01 1022.83 1022.61 1022.38
1019.37 1018.86 1019.16 1019.41 1021.25 1022.50 1023.80 1024.86 1025.18 1024.93 1024.95 1025.51 1025.31 1025.00 1025.00 1024.62 1024.00 1023.38 1022.99 1022.41 1023.93 1024.94 1025.04 1024.85 1024.75 1024.80 1025.03 1025.21 1025.42 1025.41 1025.30 1025.03 1025.01 1025.02 1025.11 1025.36 1025.67 1025.63 1025.54 1025.50 1025.34 1025.23 1024.98 1024.71 1024.32 1024.09 1023.85 1023.52 1023.16 1022.92 1022.78 1022.58 1022.35 1022.07
1019.71 1019.85 1021.19 1021.77 1022.92 1024.25 1025.86 1025.47 1025.86 1026.31 1026.75 1026.89 1026.73 1026.78 1027.02 1026.42 1025.55 1025.00 1025.41 1025.94 1026.49 1026.75 1026.50 1026.15 1025.95 1025.96 1026.05 1026.26 1026.18 1026.21 1026.31 1026.12 1026.13 1026.22 1026.28 1026.31 1026.26 1026.12 1025.96 1025.74 1025.42 1025.18 1024.82 1024.46 1024.25 1023.95 1023.69 1023.29 1023.13 1022.83 1022.62 1022.37 1022.08 1021.76
1020.99 1022.46 1023.88 1024.91 1025.72 1026.75 1026.41 1027.10 1027.36 1027.46 1027.77 1028.12 1028.18 1028.02 1027.59 1027.05 1026.39 1026.52 1027.49 1027.63 1027.91 1027.75 1027.53 1027.38 1027.05 1026.88 1027.01 1027.11 1027.36 1027.53 1027.52 1027.35 1027.18 1027.15 1027.25 1027.17 1026.98 1026.75 1026.44 1025.96 1025.49 1025.15 1024.88 1024.55 1024.20 1023.89 1023.54 1023.23 1022.88 1022.66 1022.41 1022.20 1021.95 1021.70
1022.95 1025.73 1026.05 1026.86 1027.22 1027.21 1027.99 1028.37 1028.52 1028.34 1029.09 1029.23 1028.69 1028.33 1027.92 1027.59 1027.75 1028.51 1028.77 1028.96 1028.83 1029.03 1029.04 1028.88 1028.65 1028.57 1028.65 1028.69 1028.53 1028.42 1028.33 1028.33 1028.20 1028.12 1027.71 1027.67 1027.78 1027.33 1026.82 1026.27 1025.69 1025.09 1024.60 1024.41 1024.05 1023.69 1023.31 1022.96 1022.66 1022.46 1022.25 1022.07 1021.79 1021.46
1025.31 1027.03 1027.12 1027.26 1027.65 1027.83 1028.59 1029.11 1029.25 1029.39 1029.27 1029.10 1028.93 1028.50 1028.11 1028.24 1029.14 1029.76 1029.89 1030.23 1030.25 1030.28 1030.39 1030.28 1030.16 1029.97 1029.81 1029.74 1029.63 1029.27 1029.04 1028.71 1028.55 1028.31 1028.11 1028.03 1027.87 1027.78 1027.21 1026.51 1025.68 1024.95 1024.51 1024.35 1023.86 1023.40 1022.97 1022.66 1022.37 1022.11 1021.85 1021.59 1021.31 1021.23
1027.09 1027.63 1027.20 1026.88 1027.30 1027.99 1028.59 1028.96 1029.19 1029.35 1029.47 1029.52 1029.26 1028.92 1028.95 1029.68 1030.37 1030.60 1030.68 1031.05 1031.17 1031.19 1031.29 1031.24 1031.11 1031.12 1030.97 1030.68 1030.25 1029.84 1029.45 1029.02 1028.92 1028.59 1028.06 1027.77 1027.48 1027.28 1027.03 1026.65 1025.86 1025.12 1024.46 1023.84 1023.46 1023.09 1022.65 1022.25 1021.94 1021.67 1021.44 1021.22 1021.10 1021.01
1027.77 1027.92 1028.02 1028.08 1028.11 1028.48 1029.03 1029.53 1029.89 1029.99 1029.96 1029.76 1029.77 1030.43 1030.59 1030.93 1031.33 1031.42 1031.39 1031.57 1031.78 1031.78 1031.59 1031.53 1031.45 1031.56 1031.39 1031.13 1031.02 1030.74 1029.79 1029.02 1028.26 1027.89 1027.66 1027.46 1027.10 1026.69 1026.41 1026.09 1025.60 1024.82 1024.17 1023.59 1023.02 1022.56 1022.18 1021.84 1021.44 1021.10 1020.90 1020.76 1020.59 1020.53
1028.00 1028.11 1028.25 1028.58 1028.99 1029.25 1029.73 1029.97 1030.21 1030.19 1030.14 1030.22 1030.82 1031.35 1031.62 1031.79 1032.03 1031.99 1031.89 1032.03 1032.06 1032.13 1032.07 1032.12 1031.85 1031.79 1031.31 1030.93 1030.77 1030.55 1030.36 1029.85 1029.04 1028.65 1028.55 1028.21 1027.47 1026.77 1026.21 1025.82 1025.16 1024.43 1023.88 1023.32 1022.73 1022.22 1021.68 1021.05 1020.64 1020.44 1020.28 1020.21 1020.11 1020.06
1028.18 1028.26 1028.69 1029.16 1029.54 1030.00 1030.18 1030.18 1030.44 1030.49 1030.53 1030.92 1031.26 1031.83 1032.16 1032.38 1032.43 1032.43 1032.38 1032.42 1032.58 1032.63 1032.52 1032.43 1032.28 1032.19 1032.09 1031.74 1031.38 1030.79 1030.35 1030.17 1029.97 1030.02 1029.65 1028.99 1028.21 1027.14 1026.24 1025.42 1024.66 1024.27 1023.73 1023.18 1022.57 1021.97 1021.38 1020.88 1020.62 1020.35 1020.24 1020.08 1020.05 1020.10
1028.23 1028.40 1028.86 1029.50 1029.96 1030.27 1030.38 1030.43 1030.42 1030.55 1031.07 1031.92 1032.12 1032.47 1032.78 1032.72 1032.61 1032.61 1032.75 1032.77 1032.81 1032.58 1032.39 1032.31 1032.11 1032.03 1031.97 1031.81 1031.67 1031.27 1030.80 1030.33 1030.11 1029.85 1029.33 1028.52 1027.61 1026.66 1025.66 1025.02 1024.73 1024.25 1023.68 1023.06 1022.50 1021.97 1021.53 1021.09 1020.80 1020.51 1020.27 1020.09 1019.91 1019.77
1028.66 1029.01 1029.28 1029.87 1030.34 1030.58 1030.52 1030.62 1030.88 1031.25 1031.83 1032.46 1033.12 1033.06 1033.20 1033.10 1032.99 1032.91 1033.02 1032.96 1032.81 1032.55 1032.30 1032.29 1032.15 1031.92 1031.73 1031.67 1031.59 1031.44 1031.06 1030.72 1030.37 1029.80 1028.58 1027.50 1026.55 1025.86 1025.10 1024.97 1024.63 1024.18 1023.62 1023.06 1022.48 1022.00 1021.61 1021.25 1020.88 1020.52 1020.19 1019.96 1019.80 1019.74
1029.23 1029.39 1029.68 1030.05 1030.61 1030.87 1030.91 1030.99 1031.28 1031.88 1032.27 1032.93 1033.27 1033.32 1033.27 1033.13 1033.05 1033.01 1032.80 1032.64 1032.61 1032.47 1032.37 1032.14 1031.82 1031.61 1031.48 1031.38 1031.32 1031.15 1030.49 1030.71 1030.11 1028.63 1027.98 1026.86 1026.14 1025.28 1025.14 1024.98 1024.55 1024.06 1023.62 1023.08 1022.54 1022.09 1021.70 1021.33 1020.94 1020.59 1020.22 1019.88 1019.63 1019.51
Wind_Speed
25 25 24 26 26 26 27 25 24 23 23 22 20 19 21 20 21 11 6 6 3 4 13 13 5 3 3 3 4 3 3 2 2 2 4 4 4 5 5 5 7 8 8 4 3 3 7 3 4 7 4 5 11 13
25 25 25 25 26 27 26 25 22 23 21 21 20 19 21 20 20 17 8 6 3 6 6 1 3 2 3 6 1 1 1 3 1 3 1 4 4 3 6 4 0 2 4 6 2 2 2 3 3 3 3 12 6 12
25 25 25 26 24 25 26 25 24 22 21 20 20 19 20 20 20 14 6 2 2 4 4 3 3 2 3 3 5 2 1 2 3 2 3 2 5 3 4 2 5 1 2 4 5 4 4 5 6 7 8 14 13 13
25 25 25 24 24 24 25 24 22 21 18 19 20 20 19 21 19 18 3 4 3 3 4 1 1 2 6 5 3 1 2 3 4 2 3 2 3 3 2 3 3 0 3 5 5 3 9 9 6 13 15 15 14 10
24 24 24 24 25 25 25 25 21 21 18 20 21 21 20 22 21 11 6 7 7 4 2 2 2 4 6 5 5 4 4 3 2 3 3 3 3 3 1 2 2 3 4 4 3 10 6 7 8 13 15 12 11 13
23 23 24 25 25 25 25 21 19 18 20 21 23 22 21 22 21 5 3 1 2 2 1 1 1 3 6 6 8 8 5 3 3 3 3 2 1 1 3 3 2 3 3 2 6 6 12 15 8 4 12 9 8 8
23 23 24 24 23 23 21 20 20 20 21 21 21 20 21 21 3 3 3 3 1 0 2 2 2 2 3 3 2 3 5 3 3 3 3 2 3 3 3 3 1 4 4 12 14 19 14 9 7 8 12 8 10 7
23 23 24 24 21 21 20 20 21 21 22 22 21 21 21 12 1 3 1 4 2 1 1 2 1 1 4 2 3 3 2 2 5 3 2 3 2 3 4 3 1 4 8 9 4 7 12 12 12 9 8 7 7 6
21 22 23 22 21 21 20 20 21 23 19 20 20 12 2 2 2 2 9 3 1 1 1 1 3 3 2 2 3 3 2 4 3 4 3 2 3 6 4 3 5 2 4 9 10 16 14 14 11 8 7 7 6 3
21 21 22 23 18 19 18 20 21 18 20 14 5 5 4 2 11 5 1 1 3 2 2 2 2 2 1 1 3 2 3 3 4 4 3 4 4 3 6 4 4 7 11 15 19 12 11 9 7 5 6 4 4 2
21 22 22 20 18 19 18 19 18 16 7 4 4 3 3 9 1 2 2 3 2 2 2 2 3 3 4 3 3 3 2 1 4 2 3 3 3 3 6 4 5 6 7 9 10 8 8 9 7 6 4 4 2 1
21 19 19 17 18 17 18 14 12 4 2 3 4 4 3 3 3 3 3 3 4 3 2 2 3 2 2 2 4 3 4 3 4 1 5 3 1 3 4 6 7 7 10 11 10 10 8 7 6 5 3 2 0 2
16 16 16 18 17 16 13 14 15 13 5 3 4 3 4 5 7 6 7 3 3 4 3 2 1 2 2 3 5 4 7 3 1 5 4 2 2 3 4 5 8 7 9 8 8 7 7 6 4 3 2 1 1 2
13 16 17 20 19 17 17 17 15 7 5 5 5 8 5 5 4 3 3 3 3 3 4 2 2 3 2 5 1 8 2 3 5 5 1 2 1 4 5 4 7 6 7 8 7 6 6 5 3 2 2 1 1 3
13 14 15 16 19 19 20 16 11 4 4 4 5 6 4 3 2 3 3 1 2 2 2 1 3 3 5 6 4 4 6 5 3 3 1 1 3 5 6 4 7 6 5 5 3 4 5 4 3 3 3 3 2 2
11 7 9 24 23 18 19 7 6 4 5 5 7 5 6 3 6 6 8 7 3 3 0 3 3 6 6 3 7 3 5 1 1 1 1 3 4 5 6 6 6 5 6 5 4 3 3 3 3 4 5 4 3 3
10 4 21 23 22 11 16 5 5 8 5 5 4 3 6 2 3 3 5 6 5 2 3 2 7 1 0 6 6 4 3 0 0 2 3 5 6 5 6 6 6 5 5 4 2 4 3 4 3 3 4 4 3 4
3 6 21 21 14 6 4 5 6 6 7 3 3 7 5 3 5 5 7 6 6 3 3 3 4 9 5 5 4 2 2 1 2 4 4 5 6 6 6 5 4 4 4 4 4 4 4 5 4 3 4 3 4 4
7 7 20 18 7 4 5 6 5 4 2 3 4 4 3 3 4 5 6 7 2 2 4 5 9 4 5 3 2 1 0 1 3 3 3 4 6 6 6 5 5 5 5 4 5 3 3 4 3 2 3 2 2 2
12 9 19 13 8 5 7 5 3 5 3 3 3 5 3 3 6 6 8 9 5 4 9 7 6 3 3 3 3 2 2 1 3 3 3 4 4 5 6 4 4 4 4 4 4 5 2 3 2 3 3 3 3 3
9 8 11 7 5 7 5 3 3 1 2 3 4 3 3 4 5 8 7 8 8 6 6 6 6 5 6 5 6 5 6 6 4 3 2 2 3 4 3 3 3 2 3 3 2 4 5 3 3 3 3 3 4 3
3 11 4 6 6 5 5 2 1 2 3 1 4 3 4 4 5 5 5 8 5 5 5 5 6 5 6 8 6 7 6 5 5 5 9 5 3 2 2 3 2 3 3 3 2 3 4 3 4 2 2 3 4 3
7 5 5 6 7 7 4 3 5 7 5 4 3 5 4 4 2 3 5 4 4 4 5 4 5 6 6 5 7 9 9 6 4 4 4 3 2 3 3 3 3 2 4 4 4 4 4 9 7 5 3 4 4 4
8 7 6 4 5 2 3 6 3 4 4 6 4 3 4 3 4 6 4 3 3 6 7 10 7 3 3 6 7 6 7 5 4 3 3 3 3 4 4 4 4 4 3 5 4 5 5 5 8 4 4 5 4 4
8 8 6 7 3 6 7 6 7 6 3 3 3 4 3 3 5 4 2 2 3 5 6 6 6 5 4 3 3 4 4 5 3 2 2 2 2 3 4 4 5 4 3 4 5 6 6 5 4 4 4 4 5 6
7 5 4 1 4 4 1 4 3 2 2 3 2 2 2 3 6 3 2 3 3 3 5 5 5 4 3 3 3 4 5 5 4 2 3 1 1 1 3 6 7 6 3 5 6 7 7 6 6 6 6 6 9 5
5 4 3 2 1 2 2 3 2 3 4 4 3 3 3 5 2 2 1 2 3 2 3 4 3 3 3 3 3 3 5 4 3 4 4 3 3 3 2 4 8 7 9 9 8 8 8 8 7 6 6 5 4 4
2 2 2 4 3 2 3 3 3 2 2 1 2 5 3 1 2 2 2 2 2 3 3 2 1 2 3 3 2 4 5 6 7 4 2 2 3 3 3 4 6 18 10 8 8 6 6 7 7 8 6 6 5 3
2 2 1 4 3 4 3 2 0 1 3 1 4 2 2 2 1 2 2 3 2 2 3 4 3 5 3 2 2 2 2 5 8 9 10 6 7 5 8 8 8 7 7 7 15 14 11 8 5 4 4 3 3 3
3 1 3 1 3 2 1 1 1 2 2 2 2 3 2 1 1 1 2 2 3 3 3 2 3 2 2 3 3 4 1 1 5 3 3 5 7 10 11 10 7 9 8 8 8 9 13 7 7 4 4 3 2 1
1 1 2 2 2 1 1 2 1 1 3 3 2 4 2 2 1 0 2 1 2 2 2 4 3 1 2 3 2 3 4 2 3 5 6 7 9 9 9 7 7 8 8 9 9 8 8 7 6 5 5 5 5 1
3 2 1 2 0 2 2 2 1 2 3 3 3 2 2 2 2 2 1 1 1 2 6 4 5 4 2 2 3 3 9 5 6 7 9 8 8 9 7 6 7 8 9 9 8 8 8 8 6 6 5 6 5 3
2 2 2 2 2 2 2 2 3 2 4 3 2 1 0 2 2 3 2 2 1 2 4 5 6 4 5 5 4 4 5 4 9 16 17 18 19 18 10 7 8 8 9 8 8 8 8 10 7 8 7 6 5 2
Wind_Direction
316 311 312 315 318 315 315 312 310 311 314 308 308 311 308 308 312 321 290 279 257 266 278 266 230 247 280 176 152 150 99 323 65 153 138 174 133 200 100 147 172 153 142 169 103 90 254 144 71 165 141 30 115 114
316 315 316 320 316 313 316 316 310 310 312 306 303 308 305 312 320 333 307 282 254 249 284 302 331 344 289 322 18 104 112 169 158 113 93 116 120 116 149 186 182 166 168 161 133 157 14 24 34 57 111 124 115 110
316 317 319 317 321 318 318 314 311 312 311 302 306 305 310 316 319 331 303 261 268 262 251 229 196 311 324 343 304 167 301 123 122 166 117 142 111 131 146 200 105 64 17 95 143 357 54 65 73 82 101 110 108 112
316 319 318 321 319 319 320 318 315 314 307 306 310 311 313 311 324 322 255 264 222 257 274 317 327 300 308 303 288 350 95 57 77 41 79 100 96 353 60 89 89 239 102 113 78 92 98 51 83 109 102 102 99 89
316 316 320 318 319 321 320 318 316 315 311 311 311 307 310 312 317 314 262 244 218 222 343 301 317 345 324 307 261 150 119 83 69 76 70 73 84 110 48 75 98 350 157 181 177 161 105 128 119 112 109 113 112 113
322 324 322 320 319 321 325 327 327 319 315 313 317 309 309 312 327 334 290 77 170 217 206 207 332 347 8 56 73 65 68 63 74 87 83 81 160 99 88 79 333 342 23 341 130 88 102 124 111 82 111 114 109 105
319 320 321 323 321 324 326 328 325 320 318 317 313 307 310 315 323 235 320 345 235 208 204 151 151 2 335 37 49 53 39 47 63 78 61 58 37 42 71 95 125 75 56 98 104 112 109 151 131 110 112 106 103 95
318 320 322 325 324 327 323 323 326 322 316 312 312 313 313 325 222 218 265 339 181 215 291 143 103 68 355 45 75 9 68 42 28 79 63 48 46 51 69 49 59 117 99 111 99 92 126 110 105 97 100 102 88 83
323 324 322 327 325 324 323 321 324 323 320 317 318 328 1 28 326 324 307 19 342 29 124 75 118 151 339 57 63 57 37 68 37 52 47 28 26 47 41 47 127 118 127 121 105 108 109 109 111 107 102 90 96 92
326 326 330 327 325 330 327 327 327 329 326 329 21 35 341 323 301 315 55 21 23 26 27 61 17 94 354 60 65 80 32 48 75 44 335 50 61 70 352 352 98 102 121 129 112 103 106 104 117 111 98 101 105 104
328 330 327 332 334 333 334 334 344 340 356 21 359 302 250 312 330 28 38 37 340 54 23 27 21 108 355 80 99 16 117 345 83 46 67 65 46 15 349 57 85 86 78 71 86 89 96 118 126 117 104 99 112 185
324 326 339 341 340 339 338 345 359 36 196 255 297 308 324 359 9 44 21 2 22 42 10 24 17 31 69 50 99 345 101 41 84 8 77 74 279 359 66 83 72 74 87 79 85 97 96 100 111 117 130 138 159 306
331 342 348 343 338 339 349 350 353 337 359 40 41 26 357 338 31 24 359 350 7 350 2 22 36 51 87 59 74 64 67 66 314 41 87 183 334 43 64 86 69 70 83 90 87 83 92 95 94 96 106 122 318 299
20 11 15 15 15 4 353 350 353 1 52 60 30 16 47 360 354 351 320 329 339 4 358 331 54 50 359 59 36 77 57 67 62 54 139 260 20 71 69 66 90 77 80 88 86 87 86 84 77 55 48 24 337 305
14 28 18 5 355 350 347 350 7 38 70 46 36 28 9 330 298 288 272 330 354 298 311 343 55 57 20 73 39 102 42 48 82 157 155 193 97 88 81 83 84 77 75 73 69 67 60 45 24 335 352 339 318 306
21 18 346 352 347 350 351 13 22 49 45 48 36 351 334 344 9 14 11 353 7 340 335 24 78 59 40 79 51 27 83 44 292 221 131 104 72 68 72 71 73 70 67 64 56 48 43 31 8 323 325 340 351 334
24 10 333 348 347 353 13 56 38 40 77 33 353 344 341 324 338 351 346 339 314 346 33 36 52 89 187 54 44 22 73 163 254 56 60 73 89 90 84 73 64 66 60 46 39 32 19 359 346 348 344 333 344 328
352 299 348 353 357 5 26 40 70 57 34 349 26 341 330 330 352 357 341 346 1 20 31 77 99 40 54 61 32 7 47 29 52 71 73 67 68 63 69 81 69 55 46 39 29 5 358 355 341 332 331 318 325 325
313 337 354 360 18 79 56 8 63 66 279 323 323 339 328 329 352 338 343 347 13 70 91 44 57 29 50 40 58 4 42 122 116 84 75 60 65 61 52 46 46 39 34 23 3 341 325 325 313 307 296 301 282 285
341 349 357 13 37 67 43 354 67 76 24 303 346 347 340 353 324 341 2 2 357 39 37 47 40 29 41 10 3 30 39 52 122 97 76 47 44 52 44 33 25 14 17 0 346 349 320 338 313 316 303 302 336 286
357 336 360 21 36 57 87 345 44 88 347 53 314 358 333 351 6 5 10 344 45 27 46 32 63 55 52 43 24 21 33 33 49 62 66 70 23 50 20 351 356 354 19 343 303 311 359 315 286 287 264 273 285 271
318 353 31 12 65 24 75 345 125 288 70 241 25 16 22 9 349 12 322 32 46 23 5 351 33 47 54 41 29 26 14 40 43 53 46 44 33 3 1 347 344 337 303 268 292 323 309 296 303 304 291 284 323 287
360 27 35 23 62 42 285 26 54 357 54 330 17 34 5 357 286 325 57 41 45 7 351 357 29 45 59 41 37 36 24 25 44 41 29 23 30 15 358 340 337 339 340 331 314 306 314 326 326 321 304 316 303 310
30 50 47 46 47 323 359 15 22 26 31 25 37 22 357 316 325 55 66 57 32 3 14 10 10 17 23 30 32 19 9 359 11 31 13 9 7 348 342 332 331 319 299 296 319 319 311 300 322 315 306 311 309 299
60 344 60 353 337 35 25 5 349 35 43 336 52 11 347 1 61 58 62 24 8 11 8 358 11 28 37 345 341 357 1 4 355 313 313 56 330 329 340 323 313 302 304 324 322 316 310 299 287 284 288 285 285 290
65 309 71 268 325 63 330 30 18 345 10 32 24 281 351 64 60 52 57 354 338 3 355 355 354 345 351 14 323 344 338 339 339 14 298 344 252 211 301 334 335 330 345 313 302 302 308 307 300 296 295 299 320 343
50 325 333 31 323 94 47 32 28 80 50 29 350 11 45 67 73 74 82 31 333 346 323 308 316 315 295 312 318 325 320 310 234 242 275 285 266 239 241 308 323 311 308 313 313 300 295 296 294 289 283 281 262 258
148 43 23 315 32 12 119 47 53 41 298 309 45 37 98 77 105 38 9 9 339 314 302 294 329 310 269 258 271 307 316 327 325 335 317 289 289 296 276 300 307 317 314 310 316 313 297 290 282 279 275 268 267 246
38 335 97 9 9 42 57 104 148 16 356 54 110 113 119 55 350 324 349 349 339 11 7 358 332 344 335 306 265 269 303 353 19 29 17 351 342 325 338 319 311 309 326 319 322 329 318 308 316 290 273 266 257 236
352 26 82 57 74 53 341 41 201 253 57 104 106 87 76 66 27 330 325 353 6 350 308 271 288 344 349 354 326 330 309 26 49 48 327 317 307 302 306 308 318 333 324 319 318 318 328 338 328 332 331 313 301 240
343 78 74 68 108 322 357 334 301 53 56 56 3 97 126 183 239 313 352 322 299 305 321 353 334 332 345 342 337 333 323 307 329 320 291 291 287 290 298 319 331 324 319 319 322 321 325 328 322 315 317 324 321 291
5 35 26 97 320 303 11 45 28 63 27 53 17 61 24 55 40 294 291 16 334 357 356 359 341 319 289 262 254 253 278 296 307 308 292 298 306 313 327 337 330 321 322 323 322 325 329 332 322 320 315 312 305 273
44 32 43 81 43 30 342 76 34 57 34 43 11 19 168 141 168 256 269 207 281 309 326 320 305 280 270 276 265 276 313 288 299 329 333 332 341 341 350 340 326 327 326 323 328 328 337 336 334 334 331 327 322 263